DW9447 Weather Reports


time (UTC)temp
C
wind
direction
speed
KPH
gust
KPH
rain 1hr
cm
rain 24hr
cm
rain mn
cm
humidity
%
barometer
mb
20260510192644 30 154 1.6 4.8 0.00 0.00 0.00 39 1016.5
20260510192134 29 218 3.2 8.0 0.00 0.00 0.00 40 1016.5
20260510191628 29 215 4.8 11.3 0.00 0.00 0.00 39 1016.5
20260510191131 29 123 6.4 11.3 0.00 0.00 0.00 39 1016.6
20260510190127 30 65 1.6 11.3 0.00 0.00 0.00 41 1016.5
20260510185627 29 89 1.6 4.8 0.00 0.00 0.00 41 1016.5
20260510185127 29 131 1.6 4.8 0.00 0.00 0.00 40 1016.6
20260510184128 28 82 4.8 9.7 0.00 0.00 0.00 40 1016.6
20260510183625 29 67 3.2 8.0 0.00 0.00 0.00 41 1016.7
20260510183128 29 139 3.2 11.3 0.00 0.00 0.00 40 1016.8
20260510182623 29 134 3.2 11.3 0.00 0.00 0.00 42 1016.9
20260510182123 29 72 3.2 6.4 0.00 0.00 0.00 44 1016.9
20260510181624 29 27 3.2 8.0 0.00 0.00 0.00 41 1016.9
20260510180623 29 122 1.6 8.0 0.00 0.00 0.00 43 1017.0
20260510180117 29 147 3.2 6.4 0.00 0.00 0.00 45 1017.0
20260510175105 28 319 1.6 8.0 0.00 0.00 0.00 48 1017.1
20260510174605 28 321 1.6 6.4 0.00 0.00 0.00 50 1017.2
20260510173606 28 188 3.2 8.0 0.00 0.00 0.00 52 1017.4
20260510173103 28 98 4.8 12.9 0.00 0.00 0.00 50 1017.4
20260510172601 28 270 4.8 12.9 0.00 0.00 0.00 52 1017.4
20260510171559 28 131 1.6 9.7 0.00 0.00 0.00 57 1017.4
20260510170557 27 236 3.2 8.0 0.00 0.00 0.00 59 1017.7
20260510165555 27 258 4.8 9.7 0.00 0.00 0.00 58 1017.7
20260510165055 27 309 3.2 8.0 0.00 0.00 0.00 59 1017.7
20260510164556 27 174 3.2 8.0 0.00 0.00 0.00 62 1017.7
20260510164056 27 248 3.2 8.0 0.00 0.00 0.00 63 1017.7
20260510163554 26 46 1.6 4.8 0.00 0.00 0.00 63 1017.6
20260510163048 26 270 3.2 6.4 0.00 0.00 0.00 64 1017.6
20260510162547 26 215 4.8 11.3 0.00 0.00 0.00 64 1017.7
20260510162047 26 236 3.2 11.3 0.00 0.00 0.00 66 1017.7
20260510161547 26 216 3.2 8.0 0.00 0.00 0.00 66 1017.7
20260510161047 26 314 3.2 8.0 0.00 0.00 0.00 67 1017.6
20260510160547 26 232 3.2 8.0 0.00 0.00 0.00 67 1017.6
20260510155547 25 321 1.6 4.8 0.00 0.00 0.00 71 1017.7
20260510155047 25 233 3.2 9.7 0.00 0.00 0.00 70 1017.7
20260510154547 25 274 3.2 9.7 0.00 0.00 0.00 70 1017.7
20260510154045 25 260 1.6 8.0 0.00 0.00 0.00 71 1017.6
20260510153545 25 250 3.2 8.0 0.00 0.00 0.00 72 1017.6
20260510152545 24 314 3.2 9.7 0.00 0.00 0.00 73 1017.5
20260510152044 24 64 1.6 6.4 0.00 0.00 0.00 75 1017.5
20260510151544 24 348 1.6 4.8 0.00 0.00 0.00 76 1017.4
20260510151035 23 220 3.2 4.8 0.00 0.00 0.00 76 1017.5
20260510150041 23 290 1.6 4.8 0.00 0.00 0.00 77 1017.5
20260510145538 23 328 1.6 4.8 0.00 0.00 0.00 79 1017.5
20260510145035 22 307 1.6 4.8 0.00 0.00 0.00 80 1017.5
20260510144535 22 325 1.6 6.4 0.00 0.00 0.00 82 1017.4
20260510144035 22 217 1.6 6.4 0.00 0.00 0.00 84 1017.4
20260510143535 21 2 1.6 4.8 0.00 0.00 0.00 88 1017.4
20260510143035 21 320 1.6 4.8 0.00 0.00 0.00 90 1017.4
20260510141533 19 105 3.2 4.8 0.00 0.00 0.00 94 1017.3
20260510141032 19 106 1.6 4.8 0.00 0.00 0.00 94 1017.3
20260510140530 18 108 1.6 4.8 0.00 0.00 0.00 95 1017.3
20260510135531 18 33 1.6 4.8 0.00 0.00 0.00 95 1017.3
20260510135028 18 111 1.6 4.8 0.00 0.00 0.00 94 1017.4
20260510134528 17 131 1.6 3.2 0.00 0.00 0.00 95 1017.5
20260510134028 17 107 0.0 3.2 0.00 0.00 0.00 94 1017.4
20260510133527 17 31 0.0 3.2 0.00 0.00 0.00 94 1017.5
20260510133027 17 29 1.6 3.2 0.00 0.00 0.00 94 1017.5
20260510132526 16 29 0.0 3.2 0.00 0.00 0.00 94 1017.4
20260510132028 16 78 0.0 1.6 0.00 0.00 0.00 94 1017.5
20260510131516 16 114 1.6 3.2 0.00 0.00 0.00 94 1017.4
20260510131017 16 114 1.6 3.2 0.00 0.00 0.00 94 1017.4
20260510130518 16 99 1.6 3.2 0.00 0.00 0.00 94 1017.2
20260510130015 16 105 1.6 3.2 0.00 0.00 0.00 94 1017.2
20260510125515 15 105 1.6 3.2 0.00 0.00 0.00 94 1017.2
20260510124515 15 32 0.0 1.6 0.00 0.00 0.00 94 1017.1
20260510124014 15 29 0.0 1.6 0.00 0.00 0.00 94 1017.2
20260510123011 15 8 0.0 3.2 0.00 0.00 0.00 94 1017.2
20260510122511 15 352 0.0 1.6 0.00 0.00 0.00 93 1017.2
20260510122010 14 359 0.0 3.2 0.00 0.00 0.00 93 1017.2
20260510121010 14 308 0.0 1.6 0.00 0.00 0.00 93 1016.8
20260510120511 14 308 0.0 1.6 0.00 0.00 0.00 93 1016.6
20260510115510 13 308 0.0 1.6 0.00 0.00 0.00 93 1016.3
20260510115007 13 308 0.0 1.6 0.00 0.00 0.00 92 1016.2
20260510114508 13 308 0.0 1.6 0.00 0.00 0.00 92 1016.2
20260510114009 13 308 0.0 0.0 0.00 0.00 0.00 92 1016.2
20260510113507 13 304 0.0 0.0 0.00 0.00 0.00 91 1016.1
20260510113008 13 303 0.0 0.0 0.00 0.00 0.00 91 1016.0
20260510112508 13 303 0.0 0.0 0.00 0.00 0.00 91 1016.0
20260510112006 13 303 0.0 0.0 0.00 0.00 0.00 91 1015.9
20260510110500 13 304 0.0 0.0 0.00 0.00 0.00 91 1015.6
20260510110001 13 304 0.0 0.0 0.00 0.00 0.00 91 1015.6
20260510105501 13 303 0.0 0.0 0.00 0.00 0.00 91 1015.6
20260510104958 13 303 0.0 0.0 0.00 0.00 0.00 91 1015.3
20260510104457 13 303 0.0 0.0 0.00 0.00 0.00 91 1015.2
20260510103955 13 303 0.0 0.0 0.00 0.00 0.00 91 1015.2
20260510102956 13 304 0.0 0.0 0.00 0.00 0.00 91 1015.0
20260510101950 13 304 0.0 0.0 0.00 0.00 0.00 91 1015.0
20260510101451 13 304 0.0 0.0 0.00 0.00 0.00 91 1015.0
20260510100951 13 304 0.0 0.0 0.00 0.00 0.00 90 1014.9
20260510100449 13 304 0.0 0.0 0.00 0.00 0.00 90 1014.8
20260510095947 13 304 0.0 0.0 0.00 0.00 0.00 90 1014.8
20260510094441 13 305 0.0 0.0 0.00 0.00 0.00 90 1014.6
20260510093931 13 305 0.0 0.0 0.00 0.00 0.00 91 1014.4
20260510093426 13 305 0.0 0.0 0.00 0.00 0.00 90 1014.5
20260510092920 13 305 0.0 0.0 0.00 0.00 0.00 90 1014.5
20260510092409 13 305 0.0 0.0 0.00 0.00 0.00 90 1014.4
20260510091903 13 305 0.0 0.0 0.00 0.00 0.00 90 1014.4
20260510091359 13 306 0.0 0.0 0.00 0.00 0.00 90 1014.5
20260510090847 14 305 0.0 0.0 0.00 0.00 0.00 90 1014.5
20260510085325 14 305 0.0 0.0 0.00 0.00 0.00 90 1014.5
20260510084819 14 305 0.0 0.0 0.00 0.00 0.00 90 1014.5
20260510084314 14 305 0.0 0.0 0.00 0.00 0.00 90 1014.5
20260510083310 14 306 0.0 0.0 0.00 0.00 0.00 90 1014.4
20260510082809 14 305 0.0 0.0 0.00 0.00 0.00 90 1014.4
20260510082308 14 304 0.0 0.0 0.00 0.00 0.00 90 1014.3
20260510081808 14 307 0.0 0.0 0.00 0.00 0.00 90 1014.3
20260510081306 15 307 0.0 0.0 0.00 0.00 0.00 90 1014.3
20260510080804 15 307 0.0 0.0 0.00 0.00 0.00 90 1014.2
20260510080302 15 307 0.0 0.0 0.00 0.00 0.00 89 1014.1
20260510075803 15 307 0.0 0.0 0.00 0.00 0.00 89 1014.1
20260510075305 15 307 0.0 0.0 0.00 0.00 0.00 89 1014.0
20260510074800 15 307 0.0 0.0 0.00 0.03 0.00 89 1014.0
20260510074258 15 307 0.0 0.0 0.00 0.03 0.00 89 1013.9
20260510073759 15 307 0.0 0.0 0.00 0.03 0.00 89 1013.8
20260510073259 15 307 0.0 0.0 0.00 0.03 0.00 89 1013.8
20260510072756 15 307 0.0 0.0 0.00 0.03 0.00 89 1013.9
20260510072254 15 307 0.0 0.0 0.00 0.03 0.00 89 1013.8
20260510071748 15 305 0.0 0.0 0.00 0.03 0.00 89 1013.8
20260510071242 15 306 0.0 0.0 0.00 0.03 0.00 89 1013.9
20260510070738 15 305 0.0 0.0 0.00 0.03 0.00 89 1013.8
20260510070238 15 304 0.0 0.0 0.00 0.03 0.00 89 1013.9
20260510065738 15 306 0.0 0.0 0.00 0.03 0.00 89 1013.9
20260510065238 15 306 0.0 0.0 0.00 0.03 0.00 89 1013.9
20260510064738 15 305 0.0 0.0 0.00 0.03 0.00 89 1014.0
20260510064236 16 304 0.0 0.0 0.00 0.03 0.00 89 1014.0
20260510063733 16 303 0.0 0.0 0.00 0.03 0.00 89 1013.9
20260510063233 16 303 0.0 0.0 0.00 0.03 0.00 89 1013.9
20260510062232 16 302 0.0 0.0 0.00 0.03 0.00 89 1013.9
20260510061729 16 304 0.0 0.0 0.00 0.03 0.00 89 1013.8
20260510061229 16 304 0.0 0.0 0.00 0.03 0.00 89 1013.8
20260510060729 16 304 0.0 0.0 0.00 0.03 0.00 89 1013.8
20260510060226 16 305 0.0 0.0 0.00 0.03 0.00 89 1013.9
20260510055726 16 304 0.0 0.0 0.00 0.03 0.00 89 1013.9
20260510055226 16 304 0.0 0.0 0.00 0.03 0.00 88 1013.9
20260510054726 16 305 0.0 0.0 0.00 0.03 0.00 88 1013.9
20260510054226 16 304 0.0 1.6 0.00 0.03 0.00 88 1013.8
20260510053724 16 304 0.0 1.6 0.00 0.03 0.00 88 1013.9
20260510053222 16 304 0.0 0.0 0.00 0.03 0.00 88 1013.9
20260510052720 16 304 0.0 0.0 0.00 0.03 0.00 88 1013.9
20260510052218 16 305 0.0 0.0 0.00 0.03 0.00 88 1014.0
20260510051721 17 305 0.0 0.0 0.00 0.03 0.00 88 1014.0
20260510051220 17 304 0.0 0.0 0.00 0.03 0.00 88 1014.0
20260510050718 17 306 0.0 0.0 0.00 0.03 0.00 88 1014.0
20260510050216 17 304 0.0 0.0 0.00 0.03 0.00 88 1014.0
20260510045716 17 307 0.0 0.0 0.00 0.03 0.03 87 1013.9
20260510045214 17 302 0.0 0.0 0.00 0.03 0.03 87 1013.9
20260510044712 17 293 0.0 0.0 0.00 0.03 0.03 87 1013.8
20260510044210 17 309 0.0 0.0 0.00 0.03 0.03 87 1013.8
20260510043208 17 310 0.0 0.0 0.00 0.03 0.03 87 1013.9
20260510042702 17 309 0.0 1.6 0.00 0.03 0.03 87 1014.0
20260510042155 17 310 0.0 1.6 0.00 0.03 0.03 86 1014.0
20260510041645 17 309 0.0 0.0 0.00 0.03 0.03 86 1014.1
20260510040638 17 309 0.0 0.0 0.00 0.03 0.03 85 1014.2
20260510035638 17 309 0.0 0.0 0.00 0.03 0.03 84 1014.2
20260510035138 17 309 0.0 0.0 0.00 0.03 0.03 83 1014.2
20260510034636 17 311 0.0 0.0 0.00 0.03 0.03 83 1014.3
20260510034136 17 311 0.0 1.6 0.00 0.03 0.03 83 1014.3
20260510033636 17 311 0.0 1.6 0.00 0.03 0.03 83 1014.2
20260510033138 18 311 0.0 0.0 0.00 0.03 0.03 82 1014.2
20260510032636 18 311 0.0 0.0 0.00 0.03 0.03 82 1014.2
20260510032135 18 293 0.0 0.0 0.00 0.03 0.03 82 1014.1
20260510031634 18 311 0.0 0.0 0.00 0.03 0.03 82 1014.0
20260510030632 18 311 0.0 0.0 0.00 0.03 0.03 82 1014.0
20260510030131 18 311 0.0 1.6 0.00 0.03 0.03 82 1013.9
20260510025632 18 311 0.0 1.6 0.00 0.03 0.03 82 1013.9
20260510025129 18 311 0.0 1.6 0.00 0.03 0.03 81 1013.8
20260510024129 18 311 0.0 1.6 0.00 0.03 0.03 80 1013.7
20260510023629 19 311 0.0 1.6 0.00 0.03 0.03 79 1013.7
20260510023130 19 311 0.0 0.0 0.00 0.03 0.03 78 1013.6
20260510022126 19 311 0.0 1.6 0.00 0.03 0.03 78 1013.4
20260510021126 20 311 0.0 3.2 0.00 0.03 0.03 77 1013.2
20260510020126 20 323 0.0 3.2 0.00 0.03 0.03 76 1013.0
20260510015626 20 349 0.0 1.6 0.00 0.03 0.03 75 1012.9
20260510015125 20 305 0.0 1.6 0.00 0.03 0.03 73 1012.8
20260510014626 21 287 0.0 0.0 0.00 0.03 0.03 73 1012.6
20260510014125 21 287 0.0 0.0 0.00 0.03 0.03 72 1012.4
20260510013626 21 287 0.0 0.0 0.00 0.03 0.03 71 1012.3
20260510013126 21 287 0.0 0.0 0.00 0.03 0.03 70 1012.3
20260510012134 22 287 0.0 0.0 0.00 0.03 0.03 68 1012.0
20260510011626 22 287 0.0 0.0 0.00 0.03 0.03 68 1012.0
20260510011126 22 287 0.0 0.0 0.00 0.03 0.03 67 1011.9
20260510010625 22 287 0.0 0.0 0.00 0.03 0.03 66 1011.8
20260510010126 23 287 0.0 0.0 0.00 0.03 0.03 65 1011.7
20260510005626 23 287 0.0 0.0 0.00 0.03 0.03 65 1011.7
20260510005127 23 287 0.0 0.0 0.00 0.03 0.03 64 1011.6
20260510004623 23 287 0.0 0.0 0.00 0.03 0.03 64 1011.4
20260510004124 23 287 0.0 0.0 0.00 0.03 0.03 63 1011.5
20260510003624 24 287 0.0 0.0 0.00 0.03 0.03 62 1011.5
20260510003123 24 287 0.0 0.0 0.00 0.03 0.03 61 1011.4
20260510002623 24 288 0.0 0.0 0.00 0.03 0.03 60 1011.3
20260510002116 25 288 0.0 1.6 0.00 0.03 0.03 59 1011.3
20260510001609 25 288 0.0 1.6 0.00 0.03 0.03 59 1011.2
20260510001058 25 288 0.0 3.2 0.00 0.03 0.03 58 1011.1
20260510000552 25 288 1.6 4.8 0.00 0.03 0.03 58 1011.1
20260510000045 25 230 3.2 4.8 0.00 0.03 0.03 56 1011.2
20260509235028 25 272 1.6 4.8 0.00 0.03 0.03 56 1011.1
20260509234523 25 273 1.6 4.8 0.00 0.03 0.03 56 1011.1
20260509234012 25 271 3.2 4.8 0.00 0.03 0.03 57 1011.0
20260509233505 25 278 3.2 4.8 0.00 0.03 0.03 57 1011.1
20260509232452 25 315 1.6 4.8 0.00 0.03 0.03 55 1011.1
20260509231944 25 285 3.2 6.4 0.00 0.03 0.03 55 1011.1
20260509231438 25 321 3.2 6.4 0.00 0.03 0.03 54 1011.1
20260509230928 26 322 3.2 4.8 0.00 0.03 0.03 55 1011.1
20260509230423 26 292 3.2 6.4 0.00 0.03 0.03 55 1011.1
20260509225916 26 309 3.2 6.4 0.00 0.03 0.03 55 1011.0
20260509225405 26 301 3.2 6.4 0.00 0.03 0.03 54 1011.0
20260509224900 26 238 3.2 6.4 0.00 0.03 0.03 54 1011.0
20260509224354 26 219 3.2 6.4 0.00 0.03 0.03 52 1011.0
20260509223845 26 244 1.6 6.4 0.00 0.03 0.03 52 1010.9
20260509223340 26 284 1.6 3.2 0.00 0.03 0.03 52 1010.8
20260509222833 26 243 1.6 6.4 0.00 0.03 0.03 50 1010.8
20260509222322 26 228 3.2 6.4 0.00 0.03 0.03 49 1010.9
20260509221816 26 259 3.2 6.4 0.00 0.03 0.03 51 1010.9
20260509221310 26 248 3.2 8.0 0.00 0.03 0.03 51 1010.8
20260509220800 26 269 3.2 8.0 0.00 0.03 0.03 50 1010.8
20260509220254 26 286 3.2 8.0 0.00 0.03 0.03 51 1010.7
20260509215749 26 292 3.2 8.0 0.00 0.03 0.03 49 1010.7
20260509215239 26 264 4.8 8.0 0.00 0.03 0.03 50 1010.6
20260509214732 26 296 3.2 8.0 0.00 0.03 0.03 49 1010.8
20260509214226 26 254 4.8 11.3 0.00 0.03 0.03 48 1010.6
20260509213716 26 328 4.8 11.3 0.00 0.03 0.03 49 1010.6
20260509212704 26 269 4.8 11.3 0.00 0.03 0.03 49 1010.5
20260509211649 27 304 4.8 9.7 0.00 0.03 0.03 51 1010.7
20260509211142 27 269 3.2 8.0 0.00 0.03 0.03 50 1010.7
20260509205620 27 242 4.8 12.9 0.00 0.03 0.03 48 1010.7
20260509204604 27 213 3.2 8.0 0.00 0.03 0.03 49 1010.9
20260509204059 27 248 1.6 8.0 0.00 0.03 0.03 51 1010.8
20260509203548 27 209 3.2 8.0 0.00 0.05 0.03 50 1011.0
20260509203042 26 289 3.2 8.0 0.00 0.05 0.03 50 1011.1
20260509202536 26 257 3.2 8.0 0.00 0.05 0.03 49 1011.1
20260509202032 27 214 3.2 8.0 0.00 0.05 0.03 50 1011.1
20260509201528 27 238 3.2 8.0 0.00 0.05 0.03 49 1011.2
20260509201027 27 238 1.6 8.0 0.00 0.05 0.03 49 1011.1
20260509200525 27 223 1.6 8.0 0.00 0.05 0.03 51 1011.1
20260509200023 27 224 4.8 9.7 0.00 0.05 0.03 49 1011.2
20260509195521 27 293 6.4 11.3 0.00 0.05 0.03 47 1011.2
20260509195019 27 256 4.8 11.3 0.00 0.05 0.03 46 1011.2
20260509194519 27 263 4.8 9.7 0.00 0.05 0.03 48 1011.2
20260509194019 27 339 4.8 9.7 0.00 0.05 0.03 49 1011.2
20260509193022 28 285 3.2 6.4 0.00 0.05 0.03 47 1011.2